Weather History for McCook, NE

Change the Weather History Date:

Thursday, February 7, 2013

  Actual Average Record
Temperature  
Mean Temperature 40 °F 29 °F  
Max Temperature 56 °F 43 °F 72 °F (1996)
Min Temperature 23 °F 16 °F -10 °F (1936)
Degree Days  
Heating Degree Days 24    
Moisture  
Dew Point 22 °F    
Average Humidity 50    
Maximum Humidity 82    
Minimum Humidity 19    
Precipitation  
Precipitation 0.00 in 0.02 in 0.13 in (1980)
Month to date precipitation T 0.13  
Year to date precipitation 0.05 0.64  
Sea Level Pressure  
Sea Level Pressure 30.12 in    
Wind  
Wind Speed 13 mph (NNW)    
Max Wind Speed 20 mph    
Max Gust Speed 21 mph    
Visibility 10 miles    
Events      
T = Trace of Precipitation, MM = Missing Value Source: NWS Daily Summary

Daily Weather History Graph

Daily Weather History Graph

Search for Another Location

Airport:

Trip Planner

Search our weather history database for the weather conditions in past years. The results will help you decide how hot, cold, wet, or windy it might be!

Date:

Astronomy

Feb. 07, 2013 Rise Set
Actual Time 7:44 AM CST 6:08 PM CST
Civil Twilight 7:16 AM CST 6:37 PM CST
Nautical Twilight 6:44 AM CST 7:09 PM CST
Astronomical Twilight 6:12 AM CST 7:40 PM CST
Moon 5:25 AM CST (2/7) 3:35 PM CST (2/7)
Length of Visible Light 11h 20m
Length of Day
10h 24m
Waning Crescent, 9% of the Moon is Illuminated
Feb 7
Waning Crescent
Feb 10
New
Feb 17
First Quarter
Feb 25
Full
Mar 4
Last Quarter

Hourly Weather History & Observations

Time (CST) Temp. Windchill Dew Point Humidity Pressure Visibility Wind Dir Wind Speed Gust Speed Precip Events Conditions
12:53 AM 43.0 °F 34.8 °F 27.0 °F 53% 29.96 in 10.0 mi North 18.4 mph - N/A   Overcast
1:53 AM 43.0 °F 34.5 °F 26.1 °F 51% 29.98 in 10.0 mi North 19.6 mph - N/A   Clear
2:53 AM 41.0 °F 33.1 °F 26.1 °F 55% 29.99 in 10.0 mi North 15.0 mph - N/A   Scattered Clouds
3:53 AM 39.0 °F 29.9 °F 27.0 °F 62% 30.03 in 10.0 mi NNW 17.3 mph - N/A   Scattered Clouds
4:53 AM 37.0 °F 27.7 °F 27.0 °F 67% 30.03 in 10.0 mi NNW 16.1 mph - N/A   Clear
5:53 AM 35.1 °F 25.5 °F 27.0 °F 72% 30.06 in 10.0 mi NNW 15.0 mph - N/A   Clear
6:53 AM 33.1 °F 26.1 °F 26.1 °F 75% 30.10 in 10.0 mi NW 8.1 mph - N/A   Scattered Clouds
7:53 AM 30.0 °F 22.4 °F 25.0 °F 82% 30.13 in 10.0 mi WNW 8.1 mph - N/A   Clear
8:53 AM 36.0 °F 29.0 °F 30.0 °F 79% 30.15 in 10.0 mi NW 9.2 mph - N/A   Clear
9:53 AM 41.0 °F 34.7 °F 30.9 °F 67% 30.17 in 10.0 mi NW 10.4 mph - N/A   Clear
10:53 AM 46.9 °F - 28.0 °F 48% 30.16 in 10.0 mi NNW 13.8 mph - N/A   Clear
11:53 AM 51.1 °F - 25.0 °F 36% 30.15 in 10.0 mi NW 15.0 mph - N/A   Clear
12:53 PM 52.0 °F - 25.0 °F 35% 30.13 in 10.0 mi NW 9.2 mph - N/A   Clear
1:53 PM 55.0 °F - 21.9 °F 28% 30.12 in 10.0 mi NNW 11.5 mph 18.4 mph N/A   Clear
2:53 PM 55.9 °F - 18.0 °F 23% 30.10 in 10.0 mi NNW 16.1 mph 20.7 mph N/A   Clear
3:53 PM 55.0 °F - 17.1 °F 23% 30.11 in 10.0 mi North 12.7 mph - N/A   Clear
4:53 PM 54.0 °F - 12.0 °F 19% 30.11 in 10.0 mi NNW 11.5 mph - N/A   Clear
5:53 PM 46.9 °F - 14.0 °F 27% 30.14 in 10.0 mi NNW 8.1 mph - N/A   Clear
6:53 PM 41.0 °F 35.8 °F 14.0 °F 33% 30.18 in 10.0 mi North 8.1 mph - N/A   Clear
7:53 PM 37.0 °F 34.5 °F 14.0 °F 39% 30.20 in 10.0 mi NNE 3.5 mph - N/A   Clear
8:53 PM 36.0 °F 33.3 °F 14.0 °F 41% 30.21 in 10.0 mi SSW 3.5 mph - N/A   Clear
9:53 PM 27.0 °F 21.6 °F 15.1 °F 61% 30.22 in 10.0 mi West 4.6 mph - N/A   Clear
10:53 PM 28.0 °F - 15.1 °F 58% 30.22 in 10.0 mi Calm Calm - N/A   Clear
11:53 PM 25.0 °F - 15.1 °F 66% 30.21 in 10.0 mi Calm Calm - N/A   Clear